Austin, TX

6:29 PM CST on February 23, 2017 (GMT -0600)
Austin

Weather History for KATT - March, 2013

Change the Weather History Date:

Sunday, March 24, 2013

  Actual Average Record
Temperature  
Mean Temperature 52 °F 64 °F  
Max Temperature 61 °F 74 °F 90 °F (1928)
Min Temperature 43 °F 53 °F 30 °F (1952)
Degree Days  
Heating Degree Days 13 4  
Month to date heating degree days 100 139  
Since 1 July heating degree days 1121 1476  
Cooling Degree Days 0 2  
Month to date cooling degree days 53 38  
Year to date cooling degree days 102 65  
Growing Degree Days 2 (Base 50)    
Moisture  
Dew Point 31 °F    
Average Humidity 54    
Maximum Humidity 87    
Minimum Humidity 21    
Precipitation  
Precipitation 0.00 in 0.10 in 2.52 in (1943)
Month to date precipitation 1.17 2.16  
Year to date precipitation 4.43 6.40  
Snow  
Snow 0.00 in - - ()
Month to date snowfall 0.0  
Since 1 July snowfall T  
Snow Depth 0.00 in    
Sea Level Pressure  
Sea Level Pressure 30.03 in    
Wind  
Wind Speed 9 mph (North)    
Max Wind Speed 23 mph    
Max Gust Speed 40 mph    
Visibility 9 miles    
Events      
T = Trace of Precipitation, MM = Missing Value Source: NWS Daily Summary

Daily Weather History Graph

Daily Weather History Graph

Search for Another Location

Airport or City:

Trip Planner

Search our weather history database for the weather conditions in past years. The results will help you decide how hot, cold, wet, or windy it might be!

Date:

Astronomy

Mar. 24, 2013 Rise Set
Actual Time 7:29 AM CDT 7:45 PM CDT
Civil Twilight 7:05 AM CDT 8:09 PM CDT
Nautical Twilight 6:37 AM CDT 8:37 PM CDT
Astronomical Twilight 6:09 AM CDT 9:05 PM CDT
Moon 5:23 PM CDT 5:30 AM CDT
Length of Visible Light 13h 03m
Length of Day
12h 15m
Waxing Gibbous, 92% of the Moon is Illuminated
Mar 24
Waxing Gibbous
Mar 27
Full
Apr 2
Last Quarter
Apr 10
New
Apr 18
First Quarter

Hourly Weather History & Observations

Time (CDT) Temp. Windchill Dew Point Humidity Pressure Visibility Wind Dir Wind Speed Gust Speed Precip Events Conditions
12:51 AM 59.0 °F - 55.9 °F 90% 29.70 in 6.0 mi Calm Calm - N/A   Clear
1:49 AM 59.0 °F - 55.4 °F 88% 29.78 in 5.0 mi North 10.4 mph 24.2 mph N/A   Partly Cloudy
1:51 AM 59.0 °F - 55.9 °F 90% 29.78 in 5.0 mi North 11.5 mph 24.2 mph N/A   Scattered Clouds
2:01 AM 59.0 °F - 55.9 °F 90% 29.80 in 5.0 mi North 9.2 mph 20.7 mph N/A   Mostly Cloudy
2:51 AM 59.0 °F - 51.1 °F 75% 29.83 in 10.0 mi North 15.0 mph 28.8 mph N/A   Overcast
3:08 AM 57.9 °F - 50.0 °F 75% 29.86 in 10.0 mi North 17.3 mph 33.4 mph N/A   Overcast
6:51 AM 46.0 °F 39.6 °F 30.9 °F 56% 30.04 in 10.0 mi NNW 15.0 mph 24.2 mph N/A   Clear
7:51 AM 43.0 °F 36.8 °F 27.0 °F 53% 30.08 in 10.0 mi NNW 11.5 mph 23.0 mph N/A   Clear
8:51 AM 44.1 °F 37.4 °F 25.0 °F 47% 30.13 in 10.0 mi NW 13.8 mph 26.5 mph N/A   Clear
9:51 AM 46.9 °F - 24.1 °F 41% 30.16 in 10.0 mi NNW 9.2 mph 20.7 mph N/A   Clear
10:51 AM 48.9 °F - 23.0 °F 36% 30.16 in 10.0 mi North 11.5 mph 25.3 mph N/A   Unknown
11:51 AM 50.0 °F - 21.9 °F 33% 30.17 in 10.0 mi NNW 16.1 mph 27.6 mph N/A   Clear
12:51 PM 54.0 °F - 21.9 °F 29% 30.15 in 10.0 mi NNE 12.7 mph 25.3 mph N/A   Clear
1:51 PM 57.9 °F - 21.9 °F 25% 30.12 in 10.0 mi North 11.5 mph 24.2 mph N/A   Clear
2:51 PM 57.9 °F - 21.0 °F 24% 30.09 in 10.0 mi NNW 15.0 mph 28.8 mph N/A   Clear
3:51 PM 60.1 °F - 21.9 °F 23% 30.06 in 10.0 mi NNW 10.4 mph 21.9 mph N/A   Clear
4:51 PM 59.0 °F - 21.0 °F 23% 30.05 in 10.0 mi NNW 17.3 mph 25.3 mph N/A   Clear
5:51 PM 59.0 °F - 19.0 °F 21% 30.05 in 10.0 mi NNW 9.2 mph 24.2 mph N/A   Clear
6:51 PM 57.0 °F - 19.9 °F 24% 30.06 in 10.0 mi North 11.5 mph 20.7 mph N/A   Clear
7:51 PM 54.0 °F - 21.0 °F 28% 30.09 in 10.0 mi North 8.1 mph - N/A   Clear
8:51 PM 52.0 °F - 21.0 °F 30% 30.11 in 10.0 mi Variable 4.6 mph - N/A   Clear
9:51 PM 50.0 °F - 21.9 °F 33% 30.14 in 10.0 mi NNE 4.6 mph - N/A   Clear
10:51 PM 48.9 °F - 23.0 °F 36% 30.17 in 10.0 mi North 5.8 mph - N/A   Clear
11:51 PM 46.9 °F - 24.1 °F 41% 30.19 in 10.0 mi North 3.5 mph - N/A   Clear